EHI
0 0 0 0 0 0 0 0 0 0 0 0 0 0 0 0 0 0 0 0 0 0 0 0 0 0 0 0 0 0 0 0 0 0 0 0 0 0
0 0 0 0 0 0 0 0 0 0 0 0 0 0 0 0 0 0 0 0 0 0 0 0 0 0 0 0 0 0 0 0 0 0 0 0 0 0
0 0 0 0 0 0 0 0 0 0 0 0 0 0 0 0 0 0 0 0 0 0 0 0 0 0 0 0 0 0 0 0 0 0 0 0 0 0
0 0 0 0 0 0 0 0 0 0 0 0 0 0 0 0 0 0 0 0 0 0 0 0 0 0 0 0 0 0 0 0 0 0 0 0 0 0
0 0 0 0 0 0 0 0 0 0 0 0 0 0 0 0 0 0 0 0 0 0 0 0 0 0 0 0 0 0 0 0 0 0 0 0 0 0
0 0 0 0 0 0 0 0 0 0 0 0 0 0 0 0 0 0 0 0 0 0 0 0 0 0 0 0 0 0 0 0 0 0 0 0 0 0
0 0 0 0 0 0 0 0 0 0 0 0 0 0 0 0 0 0 0 0 0 0 0 0 0 0 0 0 0 0 0 0 0 0 0 0 0 0
0 0 0 0 0 0 0 0 0 0 0 0 0 0 0 0 0 0 0 0 0 0 0 0 0 0 0 0 0 0 0 0 0 0 0 0 0 0
0 0 0 0 0 0 0 0 0 0 0 0 0 0 0 0 0 0 0 0 0 0 0 0 0 0 0 0 0 0 0 0 0 0 0 0 0 0
0 0 0 0 0 0 0 0 0 0 0 0 0 0 0 0 0 0 0 0 0 0 0 0 0 0 0 0 0 0 0 0 0 0 0 0 0 0
0 0 0 0 0 0 0 0 0 0 0 0 0 0 0 0 0 0 0 0 0 0 0 0 0 0 0 0 0 0 0 0 0 0 0 0 0 0
0 0 0 0 0 0 0 0 0 0 0 0 0 0 0 0 0 0 0 0 0 0 0 0 0 0 0 0 0 0 0 0 0 0 0 0 0 0
0 0 0 0 0 0 0 0 0 0 0 0 0 0 0 0 0 0 0 0 0 0 0 0 0 0 0 0 0 0 0 0 0 0 0 0 0 0
0 0 0 0 0 0 0 0 0 0 0 0 0 0 0 0 0 0 0 0 0 0 0 0 0 0 0 0 0 0 0 0 0 0 0 0 0 0
0 0 0 0 0 0 0 0 0 0 0 0 0 0 0 0 0 0 0 0 0 0 0 0 0 0 0 0 0 0 0 0 0 0 0 0 0 0
0 0 0 0 0 0 0 0 0 0 0 0 0 0 0 0 0 0 0 0 0 0 0 0 0 0 0 0 0 0 0 0 0 0 0 0 0 0
0 0 0 0 0 0 0 0 0 0 0 0 0 0 0 0 0 0 0 0 0 0 0 0 0 0 0 0 0 0 0 0 0 0 0 0 0 0
0 0 0 0 0 0 0 0 0 0 0 0 0 0 0 0 0 0 0 0 0 0 0 0 0 0 0 0 0 0 0 0 0 0 0 0 0 0
0 0 0 0 0 0 0 0 0 0 0 0 0 0 0 0 0 0 0 0 0 0 0 0 0 0 0 0 0 0 0 0 0 0 0 0 0 0
0 0 0 0 0 0 0 0 0 0 0 0 0 0 0 0 0 0 0 0 0 0 0 0 0 0 0 0 0 0 0 0 0 0 0 0 0 0
0 0 0 0 0 0 0 0 0 0 0 0 0 0 0 0 0 0 0 0 0 0 0 0 0 0 0 0 0 0 0 0 0 0 0 0 0 0
0 0 0 0 0 0 0 0 0 0 0 0 0 0 0 0 0 0 0 0 0 0 0 0 0 0 0 0 0 0 0 0 0 0 0 0 0 0
0 0 0 0 0 0 0 0 0 0 0 0 0 0 0 0 0 0 0 0 0 0 0 0 0 0 0 0 0 0 0 0 0 0 0 0 0 0
Wind_Speed
4 4 4 4 4 4 4 4 4 7 7 5 4 3 4 6 13 10 8 18 24 24 25 25 25 26 26 26 26 26 26 25 25 25 26 26 26 26
3 5 5 4 4 4 5 5 5 7 9 4 5 6 8 10 16 11 9 23 24 24 24 25 25 25 25 25 25 25 25 25 25 25 26 27 27 27
5 5 7 6 5 5 5 5 6 6 11 9 5 6 8 10 11 10 10 9 11 22 24 25 25 25 24 24 24 24 24 24 24 25 25 26 26 26
6 6 7 6 7 6 5 6 7 7 9 14 8 6 8 9 11 11 11 10 8 19 25 25 25 24 24 24 24 24 23 23 23 23 24 24 24 24
7 7 8 7 8 7 7 7 7 8 8 11 11 7 7 8 9 9 11 9 10 14 20 22 23 23 24 24 23 23 22 22 21 21 21 22 22 23
8 8 8 8 9 8 8 8 8 9 9 10 11 9 7 7 7 7 8 6 8 9 14 17 20 23 23 23 23 22 21 20 21 21 21 21 21 22
8 8 9 11 14 12 10 8 8 8 8 9 10 9 8 6 6 6 10 8 8 8 9 9 9 8 10 16 19 20 21 21 20 20 20 20 20 20
8 8 9 11 15 20 22 21 18 12 10 10 10 11 10 8 8 8 9 11 10 5 6 7 6 8 8 7 16 21 21 21 21 20 20 20 19 19
8 8 8 9 15 9 15 21 19 23 22 15 13 13 12 10 10 12 11 12 12 6 7 11 7 9 8 10 20 21 21 20 20 20 19 19 18 18
8 9 9 9 10 12 11 11 11 12 15 12 11 13 13 12 12 14 14 13 11 8 7 10 7 8 8 7 16 20 20 20 19 18 18 17 17 16
8 9 10 10 17 22 15 12 12 11 16 22 23 22 24 24 19 10 8 9 10 6 4 6 6 7 6 7 9 16 16 15 15 15 15 14 13 12
7 9 16 17 20 23 13 10 13 12 9 11 14 16 14 14 19 11 7 9 9 7 4 4 4 4 5 3 3 3 5 8 11 12 11 11 10 4
8 6 7 19 23 24 21 12 16 17 10 9 8 7 6 6 7 7 7 7 9 8 4 4 5 4 5 4 3 2 2 3 3 5 7 8 8 5
8 6 9 21 24 24 18 17 23 20 7 6 6 6 6 6 6 6 7 8 8 10 8 7 6 6 6 5 4 2 2 2 2 3 2 5 5 6
9 17 21 24 22 14 16 22 18 7 6 7 8 7 6 6 6 5 6 7 7 8 8 8 8 7 6 5 4 3 3 2 2 2 2 1 1 1
11 15 21 21 16 15 14 10 6 6 8 8 7 6 5 5 6 5 5 5 5 6 5 7 7 7 6 6 5 4 3 2 1 1 1 1 1 1
11 8 6 5 5 5 6 6 5 6 7 6 7 7 7 7 6 4 4 4 5 5 5 4 4 4 6 4 4 4 3 3 3 2 1 1 2 2
16 7 6 6 7 7 7 7 6 7 7 7 7 7 7 7 6 5 5 5 5 5 5 3 3 2 1 3 6 5 3 3 2 2 2 1 2 2
11 6 7 7 7 7 7 7 7 7 6 7 7 7 7 7 6 6 5 5 5 5 4 3 2 2 2 3 3 4 3 2 1 1 2 2 2 2
6 7 8 7 7 7 7 7 7 6 6 7 7 7 6 7 7 6 5 5 5 5 4 3 3 3 4 3 2 2 3 3 2 2 1 1 1 2
7 8 8 7 7 7 7 7 7 7 8 7 7 7 6 7 7 6 6 9 7 4 4 4 4 5 2 1 2 2 2 4 4 3 2 1 1 1
8 8 7 7 7 6 7 7 7 8 8 7 7 6 6 6 7 7 6 5 5 4 5 4 2 1 2 3 4 3 2 2 3 5 6 5 3 3
8 8 7 7 7 6 6 7 9 8 7 7 7 6 6 6 6 6 6 6 5 5 4 3 2 2 3 3 3 3 3 2 1 1 2 5 7 7
Wind_Direction
252 253 249 251 243 239 234 226 249 286 289 257 263 271 280 289 291 290 279 291 295 295 294 293 292 289 287 285 284 282 280 279 278 277 274 273 271 271
250 252 253 252 250 244 238 235 229 252 276 260 260 273 284 288 292 292 286 294 297 297 295 292 290 288 285 284 283 282 280 278 276 275 273 271 270 268
263 256 258 257 254 251 243 240 241 242 270 278 255 265 268 275 284 282 282 280 283 290 292 292 290 289 287 285 283 282 281 279 278 277 276 274 272 270
266 263 264 266 259 255 249 248 249 243 260 282 282 268 261 264 270 273 279 280 277 287 291 291 291 290 289 288 286 284 281 280 279 279 278 276 275 274
259 259 262 263 265 261 254 255 256 259 256 272 282 274 266 264 268 269 270 273 276 281 287 289 290 290 289 288 287 286 285 284 282 279 279 277 276 276
256 254 255 253 258 262 263 259 258 261 262 269 279 279 272 263 261 270 277 265 268 274 278 281 283 286 288 290 290 289 288 286 283 281 279 278 276 273
259 255 254 263 269 275 275 263 259 263 268 274 280 283 279 270 266 267 278 279 268 261 266 268 272 271 276 281 285 285 284 283 281 279 277 275 274 272
264 263 263 274 281 286 288 289 286 281 278 277 281 280 281 275 275 276 281 284 284 242 252 266 259 264 263 256 270 276 277 277 276 276 274 274 273 271
262 266 272 272 287 277 282 286 285 283 282 281 279 279 281 278 277 277 273 274 276 270 270 276 262 265 262 266 274 277 278 278 278 277 275 274 273 272
260 260 264 269 270 278 267 265 261 265 270 274 266 269 269 269 264 269 275 277 273 263 254 273 270 266 269 263 273 276 278 279 279 278 277 275 273 272
263 262 267 266 276 287 286 278 277 271 277 278 278 280 282 287 290 288 284 285 286 273 236 254 268 272 270 266 270 275 279 284 285 282 280 279 275 274
268 262 274 281 286 290 286 279 283 282 274 277 279 281 282 283 287 281 275 278 280 280 245 242 263 274 282 267 269 280 286 290 291 292 289 285 281 278
275 269 264 285 291 291 291 285 286 292 285 281 281 276 272 267 266 261 253 257 269 270 264 265 268 258 263 282 282 266 260 273 291 295 300 296 290 278
280 274 274 288 290 293 295 293 297 302 297 291 284 279 274 271 268 263 260 255 254 262 268 264 267 265 265 268 271 273 274 266 268 277 285 302 302 293
279 283 289 294 298 298 294 296 301 299 290 285 280 277 269 268 271 273 271 264 263 261 260 255 256 262 255 257 259 255 276 274 257 261 278 281 282 300
284 284 289 293 292 291 293 295 286 272 278 277 279 278 277 274 273 270 274 277 279 280 267 256 253 249 251 251 252 257 247 261 281 273 279 288 282 265
284 277 273 276 273 272 274 273 270 276 281 274 277 280 281 280 277 269 264 267 269 278 286 285 269 253 245 245 251 248 244 245 247 243 241 277 283 267
296 285 281 279 278 280 282 282 278 276 275 276 277 276 279 279 280 276 265 262 267 268 268 270 282 292 284 263 237 245 243 244 243 220 203 232 278 280
292 280 279 279 276 275 275 275 277 276 274 274 276 275 276 275 274 274 270 264 265 263 260 250 238 233 243 266 285 235 216 224 214 212 209 211 236 264
269 271 273 271 269 271 272 273 275 278 274 271 271 273 272 273 273 270 265 260 264 264 260 244 226 221 222 229 248 269 229 209 208 217 212 208 253 283
274 271 269 268 266 266 269 270 272 275 273 270 270 269 269 270 270 267 264 267 267 256 252 249 241 249 237 206 241 260 275 246 218 201 178 171 211 275
275 274 271 266 264 264 265 267 270 271 269 265 265 266 265 265 268 267 263 260 255 246 249 253 243 236 202 215 231 239 260 289 270 245 227 202 179 191
274 273 271 267 264 261 262 265 267 270 267 262 262 262 262 263 262 261 261 257 252 247 246 248 233 218 225 221 227 231 231 232 235 241 250 243 238 232